Girolata — FPOD — position and weather

sailwx.info

Track history (hours):
 
Tides and Currents Weather Stations Pressure Air Temp Water Temp Dewpoint Dewpoint Depression Visibility Wind Speed Wind Dir Waves Ship Positions

Girolata

Last reported at 2018-May-22 18:46 UTC. Time now 2018-May-23 05:28 UTC.
Position N 43°12' E 005°19'.

Length 177 m; beam 27 m.

Type: Passenger vessel. MMSI: 226245000.

Date/timePositionNaut miles runAvg speedWind from/ knotsBaromVisibWave heightAir tempDewpointWater temp
2018-May-22 18:46N 43°12' E 005°19'414.5
2018-May-22 18:30N 43°15' E 005°19'4 7.5
2018-May-22 18:00N 43°19' E 005°22'0 0.0
2018-May-22 17:26N 43°19' E 005°22'0 0.0
2018-May-22 16:59N 43°19' E 005°22'0 0.0
2018-May-22 16:29N 43°19' E 005°22'0 0.0
2018-May-22 15:47N 43°19' E 005°22'0 0.0
2018-May-22 11:38N 43°19' E 005°22'0 0.0
2018-May-22 09:38N 43°19' E 005°22'0 0.0
2018-May-22 08:32N 43°19' E 005°22'0 0.0
2018-May-22 08:20N 43°19' E 005°22'0 0.0
2018-May-22 07:56N 43°19' E 005°22'0 0.0
2018-May-22 07:26N 43°19' E 005°22'0 0.0
2018-May-22 06:56N 43°19' E 005°22'0 0.0
2018-May-22 06:26N 43°19' E 005°22'0 0.0
2018-May-22 05:56N 43°19' E 005°22'0 0.0
2018-May-22 05:26N 43°19' E 005°22'1 2.2
2018-May-22 05:00N 43°18' E 005°21'611.0
2018-May-22 04:30N 43°13' E 005°18'1 0.0
2018-May-20 17:46N 43°12' E 005°19'414.1
2018-May-20 17:30N 43°15' E 005°19'4 2.3
2018-May-20 15:54N 43°19' E 005°22'0 0.0
2018-May-20 15:30N 43°19' E 005°22'0 0.0
2018-May-20 15:00N 43°19' E 005°22'0 0.0
2018-May-20 14:06N 43°19' E 005°22'0 0.0
2018-May-20 13:42N 43°19' E 005°22'0 0.0
2018-May-20 13:24N 43°19' E 005°22'0 0.0
2018-May-20 12:54N 43°19' E 005°22'0 0.0
2018-May-20 12:24N 43°19' E 005°22'0 0.0
2018-May-20 12:00N 43°19' E 005°22'0 0.0
2018-May-20 07:48N 43°19' E 005°22'0 0.0
2018-May-20 07:18N 43°19' E 005°22'0 0.0
2018-May-20 06:54N 43°19' E 005°22'0 0.0
2018-May-20 06:30N 43°19' E 005°22'0 0.0
2018-May-20 04:18N 43°19' E 005°22'0 0.0
2018-May-20 03:58N 43°19' E 005°22'2 4.0
2018-May-20 03:30N 43°17' E 005°20'12818.3
2018-May-19 20:32N 42°08' E 007°47'414.6
2018-May-19 20:16N 42°06' E 007°51'1414.8
2018-May-19 19:18N 41°59' E 008°08'2 0.1
2018-May-19 02:22N 41°58' E 008°10'617.3
2018-May-19 02:00N 42°02' E 008°02'817.3
2018-May-19 01:31N 42°06' E 007°52'917.6
2018-May-19 01:01N 42°10' E 007°42'3017.4
2018-May-18 23:18N 42°24' E 007°06'517.4
2018-May-18 23:01N 42°26' E 006°60'917.6
2018-May-18 22:31N 42°30' E 006°50'917.7
2018-May-18 22:01N 42°36' E 006°40'7017.5
2018-May-18 18:00N 43°12' E 005°18'612.8
2018-May-18 17:30N 43°18' E 005°21'1 1.5
2018-May-18 16:55N 43°19' E 005°22'0 0.0
2018-May-18 16:07N 43°19' E 005°22'0 0.0
2018-May-18 15:55N 43°19' E 005°22'0 0.0
2018-May-18 11:01N 43°19' E 005°22'0 0.0
2018-May-18 10:55N 43°19' E 005°22'0 0.0
2018-May-18 06:08N 43°19' E 005°22'0 0.0
2018-May-18 05:38N 43°19' E 005°22'0 0.0
2018-May-18 05:26N 43°19' E 005°22'0 0.0
2018-May-18 05:00N 43°19' E 005°22'1 1.1
2018-May-18 04:30N 43°18' E 005°22'510.0
2018-May-18 04:00N 43°14' E 005°18'10016.9
2018-May-17 22:06N 42°22' E 007°15'99 3.5
2018-May-16 18:15N 43°12' E 005°19'416.1
2018-May-16 18:01N 43°16' E 005°19'4 5.9
2018-May-16 17:25N 43°19' E 005°22'0 0.0
2018-May-16 16:55N 43°19' E 005°22'0 0.0
2018-May-16 16:28N 43°19' E 005°22'0 0.0
2018-May-16 15:55N 43°19' E 005°22'0 0.0
2018-May-16 12:55N 43°19' E 005°22'0 0.0
2018-May-16 12:13N 43°19' E 005°22'0 0.0
2018-May-16 11:40N 43°19' E 005°22'0 0.0
2018-May-16 10:28N 43°19' E 005°22'0 0.0
2018-May-16 07:16N 43°19' E 005°22'0 0.0
2018-May-16 06:58N 43°19' E 005°22'0 0.0
2018-May-16 06:04N 43°19' E 005°22'0 0.0
2018-May-16 05:58N 43°19' E 005°22'0 0.0
2018-May-16 05:28N 43°19' E 005°22'0 0.0
2018-May-16 04:58N 43°19' E 005°22'0 1.1
2018-May-16 04:30N 43°18' E 005°22'510.4
2018-May-16 04:00N 43°14' E 005°18'2 0.1
2018-May-14 18:12N 43°12' E 005°19'316.1
2018-May-14 18:01N 43°15' E 005°19'4 7.7
2018-May-14 17:28N 43°19' E 005°22'0 0.0
2018-May-14 16:58N 43°19' E 005°22'0 0.0
2018-May-14 16:28N 43°19' E 005°22'0 0.0
2018-May-14 14:34N 43°19' E 005°22'0 0.0
2018-May-14 10:25N 43°19' E 005°22'0 0.0
2018-May-14 07:04N 43°19' E 005°22'0 0.0
2018-May-14 06:58N 43°19' E 005°22'0 0.0
2018-May-14 06:28N 43°19' E 005°22'0 0.0
2018-May-14 05:58N 43°19' E 005°22'0 0.1
2018-May-14 05:30N 43°19' E 005°22'3 6.7
2018-May-14 05:01N 43°16' E 005°19'123 4.5
2018-May-13 01:47N 42°11' E 007°40'415.8
2018-May-13 01:30N 42°13' E 007°35'815.7
2018-May-13 01:00N 42°17' E 007°26'815.6
2018-May-13 00:31N 42°20' E 007°17'815.7
2018-May-13 00:00N 42°24' E 007°08'  
Track history (hours):
 
Tides and Currents Weather Stations Pressure Air Temp Water Temp Dewpoint Dewpoint Depression Visibility Wind Speed Wind Dir Waves Ship Positions

Girolata

Last reported at 2018-May-22 18:46 UTC. Time now 2018-May-23 05:28 UTC.
Position N 43°12' E 005°19'.

Length 177 m; beam 27 m.

Type: Passenger vessel. MMSI: 226245000.

Date/timePositionNaut miles runAvg speedWind from/ knotsBaromVisibWave heightAir tempDewpointWater temp
2018-May-22 18:46N 43°12' E 005°19'414.5
2018-May-22 18:30N 43°15' E 005°19'4 7.5
2018-May-22 18:00N 43°19' E 005°22'0 0.0
2018-May-22 17:26N 43°19' E 005°22'0 0.0
2018-May-22 16:59N 43°19' E 005°22'0 0.0
2018-May-22 16:29N 43°19' E 005°22'0 0.0
2018-May-22 15:47N 43°19' E 005°22'0 0.0
2018-May-22 11:38N 43°19' E 005°22'0 0.0
2018-May-22 09:38N 43°19' E 005°22'0 0.0
2018-May-22 08:32N 43°19' E 005°22'0 0.0
2018-May-22 08:20N 43°19' E 005°22'0 0.0
2018-May-22 07:56N 43°19' E 005°22'0 0.0
2018-May-22 07:26N 43°19' E 005°22'0 0.0
2018-May-22 06:56N 43°19' E 005°22'0 0.0
2018-May-22 06:26N 43°19' E 005°22'0 0.0
2018-May-22 05:56N 43°19' E 005°22'0 0.0
2018-May-22 05:26N 43°19' E 005°22'1 2.2
2018-May-22 05:00N 43°18' E 005°21'611.0
2018-May-22 04:30N 43°13' E 005°18'1 0.0
2018-May-20 17:46N 43°12' E 005°19'414.1
2018-May-20 17:30N 43°15' E 005°19'4 2.3
2018-May-20 15:54N 43°19' E 005°22'0 0.0
2018-May-20 15:30N 43°19' E 005°22'0 0.0
2018-May-20 15:00N 43°19' E 005°22'0 0.0
2018-May-20 14:06N 43°19' E 005°22'0 0.0
2018-May-20 13:42N 43°19' E 005°22'0 0.0
2018-May-20 13:24N 43°19' E 005°22'0 0.0
2018-May-20 12:54N 43°19' E 005°22'0 0.0
2018-May-20 12:24N 43°19' E 005°22'0 0.0
2018-May-20 12:00N 43°19' E 005°22'0 0.0
2018-May-20 07:48N 43°19' E 005°22'0 0.0
2018-May-20 07:18N 43°19' E 005°22'0 0.0
2018-May-20 06:54N 43°19' E 005°22'0 0.0
2018-May-20 06:30N 43°19' E 005°22'0 0.0
2018-May-20 04:18N 43°19' E 005°22'0 0.0
2018-May-20 03:58N 43°19' E 005°22'2 4.0
2018-May-20 03:30N 43°17' E 005°20'12818.3
2018-May-19 20:32N 42°08' E 007°47'414.6
2018-May-19 20:16N 42°06' E 007°51'1414.8
2018-May-19 19:18N 41°59' E 008°08'2 0.1
2018-May-19 02:22N 41°58' E 008°10'617.3
2018-May-19 02:00N 42°02' E 008°02'817.3
2018-May-19 01:31N 42°06' E 007°52'917.6
2018-May-19 01:01N 42°10' E 007°42'3017.4
2018-May-18 23:18N 42°24' E 007°06'517.4
2018-May-18 23:01N 42°26' E 006°60'917.6
2018-May-18 22:31N 42°30' E 006°50'917.7
2018-May-18 22:01N 42°36' E 006°40'7017.5
2018-May-18 18:00N 43°12' E 005°18'612.8
2018-May-18 17:30N 43°18' E 005°21'1 1.5
2018-May-18 16:55N 43°19' E 005°22'0 0.0
2018-May-18 16:07N 43°19' E 005°22'0 0.0
2018-May-18 15:55N 43°19' E 005°22'0 0.0
2018-May-18 11:01N 43°19' E 005°22'0 0.0
2018-May-18 10:55N 43°19' E 005°22'0 0.0
2018-May-18 06:08N 43°19' E 005°22'0 0.0
2018-May-18 05:38N 43°19' E 005°22'0 0.0
2018-May-18 05:26N 43°19' E 005°22'0 0.0
2018-May-18 05:00N 43°19' E 005°22'1 1.1
2018-May-18 04:30N 43°18' E 005°22'510.0
2018-May-18 04:00N 43°14' E 005°18'10016.9
2018-May-17 22:06N 42°22' E 007°15'99 3.5
2018-May-16 18:15N 43°12' E 005°19'416.1
2018-May-16 18:01N 43°16' E 005°19'4 5.9
2018-May-16 17:25N 43°19' E 005°22'0 0.0
2018-May-16 16:55N 43°19' E 005°22'0 0.0
2018-May-16 16:28N 43°19' E 005°22'0 0.0
2018-May-16 15:55N 43°19' E 005°22'0 0.0
2018-May-16 12:55N 43°19' E 005°22'0 0.0
2018-May-16 12:13N 43°19' E 005°22'0 0.0
2018-May-16 11:40N 43°19' E 005°22'0 0.0
2018-May-16 10:28N 43°19' E 005°22'0 0.0
2018-May-16 07:16N 43°19' E 005°22'0 0.0
2018-May-16 06:58N 43°19' E 005°22'0 0.0
2018-May-16 06:04N 43°19' E 005°22'0 0.0
2018-May-16 05:58N 43°19' E 005°22'0 0.0
2018-May-16 05:28N 43°19' E 005°22'0 0.0
2018-May-16 04:58N 43°19' E 005°22'0 1.1
2018-May-16 04:30N 43°18' E 005°22'510.4
2018-May-16 04:00N 43°14' E 005°18'2 0.1
2018-May-14 18:12N 43°12' E 005°19'316.1
2018-May-14 18:01N 43°15' E 005°19'4 7.7
2018-May-14 17:28N 43°19' E 005°22'0 0.0
2018-May-14 16:58N 43°19' E 005°22'0 0.0
2018-May-14 16:28N 43°19' E 005°22'0 0.0
2018-May-14 14:34N 43°19' E 005°22'0 0.0
2018-May-14 10:25N 43°19' E 005°22'0 0.0
2018-May-14 07:04N 43°19' E 005°22'0 0.0
2018-May-14 06:58N 43°19' E 005°22'0 0.0
2018-May-14 06:28N 43°19' E 005°22'0 0.0
2018-May-14 05:58N 43°19' E 005°22'0 0.1
2018-May-14 05:30N 43°19' E 005°22'3 6.7
2018-May-14 05:01N 43°16' E 005°19'123 4.5
2018-May-13 01:47N 42°11' E 007°40'415.8
2018-May-13 01:30N 42°13' E 007°35'815.7
2018-May-13 01:00N 42°17' E 007°26'815.6
2018-May-13 00:31N 42°20' E 007°17'815.7
2018-May-13 00:00N 42°24' E 007°08'  

Dump ship's entire track history